TimeEDT,TemperatureF,Dew PointF,Humidity,Sea Level PressureIn,VisibilityMPH,Wind Direction,Wind SpeedMPH,Gust SpeedMPH,PrecipitationIn,Events,Conditions,WindDirDegrees,DateUTC
12:54 AM,81.0,71.1,72,30.17,10.0,SW,13.8,-,N/A,,Partly Cloudy,220,2013-07-06 04:54:00
1:54 AM,80.1,72.0,76,30.16,10.0,SW,6.9,-,N/A,,Clear,230,2013-07-06 05:54:00
2:54 AM,78.1,73.0,84,30.16,10.0,SW,8.1,-,N/A,,Clear,230,2013-07-06 06:54:00
3:54 AM,79.0,73.0,82,30.15,10.0,SW,8.1,-,N/A,,Clear,230,2013-07-06 07:54:00
4:54 AM,78.1,73.0,84,30.16,10.0,SW,5.8,-,N/A,,Partly Cloudy,220,2013-07-06 08:54:00
5:54 AM,77.0,73.0,88,30.16,10.0,SSW,3.5,-,N/A,,Partly Cloudy,210,2013-07-06 09:54:00
6:54 AM,79.0,73.0,82,30.17,10.0,SW,9.2,-,N/A,,Partly Cloudy,230,2013-07-06 10:54:00
7:54 AM,81.0,73.9,79,30.17,10.0,SW,10.4,-,N/A,,Scattered Clouds,230,2013-07-06 11:54:00
8:54 AM,82.9,73.0,72,30.17,10.0,SW,9.2,-,N/A,,Scattered Clouds,230,2013-07-06 12:54:00
9:54 AM,84.9,73.0,67,30.16,10.0,WSW,10.4,-,N/A,,Scattered Clouds,240,2013-07-06 13:54:00
10:54 AM,88.0,73.0,61,30.16,10.0,WSW,10.4,-,N/A,,Scattered Clouds,240,2013-07-06 14:54:00
11:54 AM,89.1,72.0,57,30.15,10.0,West,10.4,-,N/A,,Scattered Clouds,260,2013-07-06 15:54:00
12:54 PM,91.0,71.1,52,30.13,10.0,WSW,9.2,-,N/A,,Scattered Clouds,240,2013-07-06 16:54:00
1:54 PM,93.0,70.0,47,30.12,10.0,WSW,10.4,-,N/A,,Scattered Clouds,240,2013-07-06 17:54:00
2:54 PM,93.0,71.1,49,30.10,10.0,SW,9.2,-,N/A,,Scattered Clouds,220,2013-07-06 18:54:00
3:54 PM,93.0,70.0,47,30.09,10.0,SW,9.2,20.7,N/A,,Scattered Clouds,220,2013-07-06 19:54:00
4:54 PM,93.9,69.1,44,30.07,10.0,SW,11.5,-,N/A,,Scattered Clouds,230,2013-07-06 20:54:00
5:54 PM,93.0,68.0,44,30.06,10.0,SW,12.7,-,N/A,,Scattered Clouds,220,2013-07-06 21:54:00
6:54 PM,91.9,71.1,50,30.06,10.0,SW,10.4,-,N/A,,Clear,220,2013-07-06 22:54:00
7:54 PM,90.0,72.0,55,30.06,10.0,SW,11.5,-,N/A,,Partly Cloudy,220,2013-07-06 23:54:00
8:54 PM,88.0,72.0,59,30.07,10.0,SW,9.2,-,N/A,,Partly Cloudy,220,2013-07-07 00:54:00
9:54 PM,87.1,72.0,61,30.08,10.0,SW,11.5,-,N/A,,Partly Cloudy,220,2013-07-07 01:54:00
10:54 PM,84.9,72.0,65,30.09,10.0,SW,10.4,-,N/A,,Clear,230,2013-07-07 02:54:00
11:54 PM,84.0,72.0,67,30.10,10.0,SW,11.5,-,N/A,,Clear,220,2013-07-07 03:54:00